Orbital Elements at Epoch 2459200.5 (2020-Dec-17.0) TDB
Reference: JPL 30 (heliocentric ecliptic J2000)
Element | Value | Uncertainty (1-sigma) | Units |
e | .1114179818212421 | 3.3128e-08 | |
a | 2.267870294623517 | 5.6747e-09 | au |
q | 2.01518876336422 | 7.4944e-08 | au |
i | 4.501044563371857 | 3.5934e-06 | deg |
node | 52.15352519806986 | 4.5731e-05 | deg |
peri | 33.18630900637995 | 4.8519e-05 | deg |
M | 15.88966169619321 | 1.6026e-05 | deg |
tp | 2459145.439785915022 (2020-Oct-22.93978591) | 5.55e-05 | TDB |
period | 1247.457463197015 3.42 | 4.6821e-06 1.282e-08 | d yr |
n | .2885869944433881 | 1.0832e-09 | deg/d |
Q | 2.520551825882815 | 6.307e-09 | au |
|
| | Orbit Determination Parameters
Additional Information
|